Flag for Pakistan Weather past 2 weeks in Sahiwal, Pakistan

Now
79 °F

Broken clouds.


Feels Like: 81 °F
Forecast: 92 / 107 °F
Wind: 6 mph from South

Location: Lahore Airport

Current Time: Jul 6, 2015 at 7:57:11 AM

Latest Report: Jul 6, 2015 at 7:25 AM


Visibility: 3 mi

Pressure: 29.45 "Hg

Humidity: 74%

Dew point: 70 °F

Location of SahiwalLocation

Historic Weather in Sahiwal — Graph

°F

Sahiwal temperature yesterday

Maximum temperature yesterday: 106 °F (at 1:55 PM)
Minimum temperature yesterday: 88 °F (at 4:30 AM)
Average temperature yesterday: 97 °F

Past Weeks' High & Low Weather Summary

 TemperatureHumidityPressure
High108 °F (Jun 28, 3:00 PM)100% (Jun 23, 11:25 AM)29.74 "Hg (Jun 23, 11:25 AM)
Low73 °F (Jun 25, 5:00 AM)26% (Jun 28, 4:00 PM)29.36 "Hg (Jun 22, 4:55 PM)
Average90 °F58%29.51 "Hg
* Reported Jun 21 6:25 AM — Jul 6 6:25 AM, Sahiwal, Weather by CustomWeather, © 2015

Note: Actual official high and low records may vary slightly from our data, if they occured in-between our weather recording intervals... More about our weather records

Advertising

Sahiwal weather history for previous 24 hours

 ConditionsComfort  
Time TempWeatherWind HumidityBarometerVisibility
6:25 AM
Mon, Jul 6
79 °FBroken clouds.6 mph74%29.42 "Hg2 mi
5:55 AM79 °FBroken clouds.8 mph74%29.42 "Hg2 mi
5:25 AM77 °FBroken clouds.10 mph79%29.42 "Hg2 mi
3:55 AM82 °FThunderstorms. Partly cloudy.17 mph79%29.42 "Hg1 mi
3:25 AM86 °FPartly cloudy.12 mph70%29.42 "Hg2 mi
2:55 AM88 °FPassing clouds.16 mph70%29.42 "Hg2 mi
2:25 AM90 °FPassing clouds.7 mph63%29.39 "Hg2 mi
1:55 AM90 °FPassing clouds.5 mph63%29.39 "Hg2 mi
1:25 AM91 °FPassing clouds.5 mph59%29.39 "Hg2 mi
12:55 AM91 °FPassing clouds.5 mph59%29.39 "Hg2 mi
12:25 AM93 °FPassing clouds.5 mph56%29.39 "Hg2 mi
11:55 PM
Sun, Jul 5
93 °FPassing clouds.5 mph56%29.39 "Hg2 mi
11:25 PM93 °FPassing clouds.6 mph56%29.39 "Hg2 mi
10:55 PM93 °FPassing clouds.7 mph56%29.39 "Hg2 mi
10:25 PM95 °FPassing clouds.6 mph53%29.39 "Hg2 mi
9:55 PM95 °FPassing clouds.6 mph53%29.39 "Hg2 mi
9:25 PM97 °FPassing clouds.7 mph47%29.39 "Hg2 mi
8:55 PM97 °FPassing clouds.8 mph47%29.39 "Hg2 mi
8:25 PM99 °FPassing clouds.8 mph47%29.39 "Hg1 mi
7:55 PM99 °FPassing clouds.13 mph47%29.39 "Hg1 mi
6:55 PM100 °FScattered clouds.9 mph42%29.39 "Hg1 mi
6:25 PM100 °FScattered clouds.10 mph45%29.36 "Hg1 mi
5:55 PM102 °FScattered clouds.12 mph42%29.36 "Hg1 mi
5:25 PM102 °FScattered clouds.13 mph42%29.36 "Hg1 mi
4:55 PM104 °FScattered clouds.12 mph40%29.36 "Hg1 mi
4:25 PM104 °FScattered clouds.13 mph43%29.36 "Hg1 mi
3:55 PM106 °FScattered clouds.12 mph40%29.36 "Hg1 mi
2:55 PM106 °FScattered clouds.10 mph40%29.39 "Hg2 mi
2:25 PM106 °FScattered clouds.7 mph40%29.39 "Hg2 mi
1:55 PM106 °FScattered clouds.8 mph40%29.39 "Hg2 mi
1:25 PM104 °FScattered clouds.6 mph40%29.42 "Hg2 mi
12:55 PM104 °FScattered clouds.7 mph40%29.42 "Hg2 mi
12:25 PM104 °FScattered clouds.6 mph40%29.42 "Hg2 mi
11:55 AM104 °FScattered clouds.No wind40%29.42 "Hg2 mi
11:25 AM102 °FScattered clouds.No wind48%29.42 "Hg2 mi
10:55 AM100 °FScattered clouds.6 mph50%29.42 "Hg2 mi
10:25 AM99 °FScattered clouds.No wind53%29.45 "Hg2 mi
9:55 AM99 °FScattered clouds.5 mph53%29.45 "Hg2 mi
9:25 AM99 °FScattered clouds.6 mph57%29.45 "Hg2 mi
8:55 AM97 °FScattered clouds.7 mph60%29.45 "Hg2 mi
8:25 AM93 °FScattered clouds.No wind63%29.42 "Hg2 mi
7:55 AM91 °FScattered clouds.No wind67%29.42 "Hg2 mi
7:30 AM90 °FScattered clouds.6 mph67%29.42 "Hg2 mi
7:00 AM90 °FScattered clouds.5 mph67%29.42 "Hg2 mi
Weather by CustomWeather, © 2015

See weather overviewHow to use our weather pages